Regional Weather Roundup
Issued by NWS Bismarck, ND

Home | Current Version | Previous Version | Text Only | Print | Product List | Glossary On
Versions: 1 2 3 4 5 6 7 8 9 10 11 12 13 14 15 16 17 18 19 20 21 22 23 24 25 26 27 28 29 30 31 32 33 34 35 36 37 38 39 40 41 42 43 44 45 46 47 48 49 50
000
ASUS43 KBIS 230202
RWRBIS

NWR BROADCAST TEXT
NATIONAL WEATHER SERVICE BISMARCK ND
900 PM CDT SAT APR 22 2017

NOTE: "FAIR" INDICATES FEW OR NO CLOUDS BELOW 12,000 FEET WITH NO
SIGNIFICANT WEATHER AND/OR OBSTRUCTIONS TO VISIBILITY.


CITY           SKY/WX    TMP DP  RH WIND       PRES   REMARKS
WILLISTON      CLOUDY    42  34  73 NE12      30.13S
MINOT          CLOUDY    38  33  82 NE13      30.19R
MINOT AFB      MIX PCPN  35  33  92 NE15      30.20R
BISMARCK       FAIR      47  39  74 NE21      30.10R
DICKINSON      FAIR      49  44  83 NE10      30.04S
GARRISON         N/A     39  32  76 NE12G23   30.14R
HETTINGER ARPT CLOUDY    57  42  57 CALM      30.05F
JAMESTOWN      CLOUDY    40  36  86 NE21G29   30.13R
HAZEN          MOCLDY    41  36  81 NE16G23   30.14R
LINTON         FAIR      55  52  88 NE12G22   30.05R
MANDAN         FAIR      48  41  76 NE15G23   30.10R
STANLEY        CLOUDY    36  36 100 E14G25    30.18S
TIOGA          CLOUDY    36  36 100 E17G23    30.15F
WATFORD CITY   CLOUDY    41  34  75 E16G23    30.10S
$$

CITY           SKY/WX    TMP DP  RH WIND       PRES   REMARKS
GRAND FORKS    CLOUDY    37  28  70 N23       30.21R
GRAND FORKS AF MOCLDY    35  26  68 NE20G29   30.22R
DEVILS LAKE    LGT RAIN  34  30  85 NE20      30.22R
FARGO          CLOUDY    45  36  70 N23G33    30.11R
CAVALIER       CLOUDY    36  28  75 NE12      30.25R
GRAFTON        FLURRIES  34  32  93 NE9       30.25S
GWINNER        MOCLDY    52  43  71 MISG      30.08R
LANGDON        CLOUDY    34  30  86 NE17      30.23S
ROLLA          CLOUDY    32  28  86 NE15      30.23S
$$

CITY           SKY/WX    TMP DP  RH WIND       PRES   REMARKS
ABERDEEN       FAIR      52  31  44 S9        30.06S
MOBRIDGE       MOCLDY    59  38  45 S7        30.02F
BUFFALO          N/A     58  40  51 SE5       29.97F
RAPID CITY     FAIR      52  34  50 S8        30.04F
GLASGOW        CLOUDY    49  41  74 E15       30.02F
SIDNEY         CLOUDY    48  38  68 E17       30.08S
WOLF POINT     CLOUDY    49  40  71 E17G24    30.05F
GLENDIVE       MOCLDY    50  42  74 NE14      30.04F
MILES CITY     FAIR      57  39  51 SE3       29.99F
BAKER          CLOUDY    55  41  59 NE5       30.04F
$$

CITY           SKY/WX    TMP DP  RH WIND       PRES   REMARKS
BILLINGS       MOCLDY    58  35  42 SE6       29.93F
GREAT FALLS    FAIR      54  37  52 NE8       29.88F
$$




USA.gov is the U.S. government's official web portal to all federal, state and local government web resources and services.